This demonstration page uses our WeatherBlox Daily Observations layout. Learn more.

Left ArrowRight Arrow

44.8408, -93.29828

Hourly Observations for August 22, 2021

Temp ( °F °C ) Dew Point ( °F °C ) Humidity (%) Winds ( mph kmh ) Pressure ( in mb ) Visibility ( mi km ) Precip ( " mm )
12:53 am 00:53 Clear 62 16.7 52 11.1 70 70 Calm 30.04 1017 10 16 0.00 0.00
1:53 am 01:53 Clear 61 16.1 53 11.7 75 75 Calm 30.04 1017 10 16 0.00 0.00
2:53 am 02:53 Clear 59 15 53 11.7 81 81 Calm 30.05 1018 10 16 0.00 0.00
3:53 am 03:53 Clear 57 13.9 52 11.1 83 83 Calm 30.07 1018 10 16 0.00 0.00
4:53 am 04:53 Clear 58 14.4 52 11.1 81 81 Calm 30.08 1019 10 16 0.00 0.00
5:53 am 05:53 Clear 58 14.4 52 11.1 81 81 Calm 30.09 1019 9 14 0.00 0.00
6:53 am 06:53 Sunny 56 13.3 54 12.2 93 93 S 3 6 30.09 1019 9 14 0.00 0.00
7:53 am 07:53 Sunny 60 15.6 55 12.8 84 84 SSE 3 6 30.10 1019 10 16 0.00 0.00
8:53 am 08:53 Sunny 64 17.8 54 12.2 70 70 ESE 7 11 30.09 1019 10 16 0.00 0.00
9:53 am 09:53 Sunny 69 20.6 54 12.2 59 59 ESE 7 11 30.09 1019 10 16 0.00 0.00
10:53 am 10:53 Sunny 73 22.8 51 10.6 46 46 SE 13 20 30.06 1018 10 16 0.00 0.00
11:53 am 11:53 Sunny 74 23.3 51 10.6 45 45 ESE 12 19 30.05 1018 10 16 0.00 0.00
12:53 pm 12:53 Sunny 75 23.9 51 10.6 43 43 SSE 9 15 30.02 1017 10 16 0.00 0.00
1:53 pm 13:53 Mostly Sunny 77 25 50 10 39 39 S 15 24 30.01 1016 10 16 0.00 0.00
2:53 pm 14:53 Mostly Sunny 78 25.6 51 10.6 39 39 SE 13 20 29.98 1015 10 16 0.00 0.00
3:53 pm 15:53 Mostly Sunny 79 26.1 52 11.1 39 39 SSE 14 22 29.95 1014 10 16 0.00 0.00
4:53 pm 16:53 Mostly Sunny 79 26.1 53 11.7 41 41 SSE 17 28 29.93 1014 10 16 0.00 0.00
5:53 pm 17:53 Partly Cloudy 78 25.6 54 12.2 43 43 SSE 21 33 29.91 1013 10 16 0.00 0.00
6:53 pm 18:53 Mostly Cloudy 76 24.4 54 12.2 47 47 S 12 19 29.93 1014 10 16 0.00 0.00
7:53 pm 19:53 Cloudy with Light Rain 74 23.3 57 13.9 56 56 SE 7 11 29.93 1014 10 16 0.00 0.00
8:53 pm 20:53 Cloudy with Nearby Thunderstorms 71 21.7 60 15.6 68 68 Calm 29.95 1014 10 16 0.02 0.51
9:01 pm 21:01 Cloudy with Thunderstorms 70 21.1 60 15.6 71 71 SE 9 15 29.90 1013 10 16 0.01 0.25
9:24 pm 21:24 Mostly Cloudy with Light Rain 67 19.4 62 16.7 84 84 SSE 8 13 29.90 1013 8 13 0.02 0.51
9:53 pm 21:53 Mostly Cloudy 68 20 62 16.7 81 81 S 12 19 29.91 1013 10 16 0.02 0.51
10:53 pm 22:53 Mostly Cloudy 65 18.3 60 15.6 84 84 SSE 12 19 29.91 1013 10 16 0.00 0.00
11:53 pm 23:53 Mostly Cloudy 65 18.3 59 15 81 81 SSE 8 13 29.90 1013 10 16 0.00 0.00

Powered by AerisWeather